Location: Rumah Long Bangan
(2.8362°N, 113.7519°E)
Time: 20:00:05
(UTC+00:00)

ARIANE 5 R/B - Pass Details

Date: 24 October 2021
Orbit: 264 x 30562 km, 6.4° (Epoch: 07 December)

Event Time Altitude Azimuth Distance (km) Brightness Sun altitude
Exits shadow 21:37:42 - 273° (W) 10,636 7.6 -8.3°
Reaches altitude 10° 21:42:11 10° 273° (W) 9,088 7.3 -7.2°
Maximum altitude 22:02:02 66° 354° (N) 1,133 3.4 -2.3°
Drops below altitude 10° 22:05:34 10° 78° (ENE) 1,822 5.8 -1.5°
Sets 22:06:48 0° 81° (E) 2,392 6.7 -1.2°
